Regional Weather Roundup
Issued by NWS

Home | Current Version | Previous Version | Text Only | Print | Product List | Glossary On
Versions: 1 2 3 4 5 6 7 8 9 10 11 12 13 14 15 16 17 18 19 20 21 22 23 24 25 26 27 28 29 30 31 32 33 34 35 36 37 38 39 40 41 42 43 44 45 46 47 48 49 50
000
ASUS42 KTBW 191117
RWRFL
FLORIDA REGIONAL WEATHER ROUNDUP
NATIONAL WEATHER SERVICE TAMPA BAY RUSKIN FL
700 AM EDT SUN APR 19 2015

NOTE: "FAIR" INDICATES FEW OR NO CLOUDS BELOW 12,000 FEET WITH NO
SIGNIFICANT WEATHER AND/OR OBSTRUCTIONS TO VISIBILITY.


FLZ001>010-012>015-112-114-115-191200-
PANHANDLE FLORIDA

CITY           SKY/WX    TMP DP  RH WIND       PRES   REMARKS
PENSACOLA      CLOUDY    73  70  90 S12       29.76F
PENSACOLA NAS  CLOUDY    74  71  91 S10       29.76F
MILTON NAS     TSTM      70  70 100 CALM      29.78  VSB 3/4
CRESTVIEW      CLOUDY    73  73 100 S5        29.79F
DUKE FIELD     FAIR      73  72  94 S9        29.78F
VALPARAISO     CLOUDY    74  71  89 S8        29.78F
MARY ESTHER    MOCLDY    73  66  78 S9        29.77
TRI COUNTY     CLOUDY    70  69  97 SE3       29.82F
PANAMA CITY    PTSUNNY   75  73  93 SE12      29.80F
TYNDALL AFB    CLOUDY    75  74  95 S9        29.82S
APALACHICOLA   CLOUDY    78  74  87 S15G21    29.82F

STATION/POSITION SKY/WX   TEMP    WIND        PRES    WAVE   SWELL
                          AIR SEA DIR/SP/G            HT/PER HT/PER
                          (F)     (DEG/KT/KT) (MB)    (FT/S) (FT/S)
30.1N   87.6W              74 73  180/ 17/ 19 1006.6F   4/ 5
29.2N   88.2W              76 74  170/ 19/ 25 1006.8F   4/ 6
28.8N   86.0W              77 77  160/ 16/ 19 1009.7F   3/ 4
PANAMA CITY BEAC           75 75  160/ 13/ 15 1009.5F
CAPE SAN BLAS    NOT AVBL
TOWER C                    75     160/ 18/ 19 1009.7F
28.5N   84.5W              77 77  150/ 12/ 14 1011.9R   1/ 5

$$
FLZ011-016>038-118-127-128-134-139-239-191200-
NORTH FLORIDA

CITY           SKY/WX    TMP DP  RH WIND       PRES   REMARKS
MARIANNA       MOCLDY    73  73 100 S6        29.82F
TALLAHASSEE    CLOUDY    75  73  93 S9        29.84R FOG
PERRY          CLOUDY    73  73  99 E5        29.83F FOG
CROSS CITY       N/A     74  72  93 E5        29.82F
LAKE CITY      FOG       70  70 100 SE3       29.92F VSB 1/2
GAINESVILLE    CLOUDY    69  68  96 E3        29.94S FOG
MAYPORT NAS    CLOUDY    68  68 100 S3        29.94R
JACKSONVILLE   CLOUDY    70  69  97 CALM      29.93S FOG
JAX NAS        CLOUDY    76  71  85 S3        29.95R
JAX CRAIG      CLOUDY    71  69  93 CALM      29.94R FOG
JAX CECIL      CLEAR     68  68 100 CALM      29.94F FOG
FERNANDINA BEA FAIR      75  73  94 CALM      29.93S
ST AUGUSTINE   CLOUDY    71  70  96 S3        29.96R FOG

STATION/POSITION SKY/WX   TEMP    WIND        PRES    WAVE   SWELL
                          AIR SEA DIR/SP/G            HT/PER HT/PER
                          (F)     (DEG/KT/KT) (MB)    (FT/S) (FT/S)
SHELL POINT                76     130/ 11/ 17   N/A
KEATON BEACH               74     190/ 14/ 16 1012.1R
CEDAR KEY                  77     150/ 13/ 14 1012.5F
FERNANDINA                 71 73  160/  3/  4 1012.9R
30.7N   81.3W                 71                N/A     2/ 8
MAYPORT                    71 72  180/  2/  3 1013.7R
31.4N   80.9W              69 69  210/  8/  8 1013.9R   2/ 9   2/ 9
ST AUGUSTINE               71 70  210/  3/  3 1015.0R

$$
FLZ040-043>046-052-053-057-058-063-144-191200-
INTERIOR CENTRAL FLORIDA

CITY           SKY/WX    TMP DP  RH WIND       PRES   REMARKS
OCALA          PTCLDY    70  66  88 CALM      29.95F FOG
THE VILLAGES     N/A     72  72 100 CALM      29.86S FOG
LEESBURG       CLOUDY    72  71  97 CALM      29.97R
SANFORD        CLOUDY    73  70  90 CALM      29.96R
ORLANDO EXEC   CLOUDY    75  71  87 CALM      29.97R
ORLANDO INTL   CLOUDY    73  71  93 CALM      29.97R
KISSIMMEE      PTCLDY    73  72  94 CALM      29.97
WINTER HAVEN   MOCLDY    73  70  90 CALM      29.98R
LAKELAND       CLEAR     72  70  94 CALM      29.97R FOG
BARTOW         FAIR      68  68 100 CALM      29.98R
OKEECHOBEE     MOCLDY    68  68 100 CALM      29.96R FOG

$$
FLZ041-047-054-059-064-141-147-191200-
EAST CENTRAL FLORIDA

CITY           SKY/WX    TMP DP  RH WIND       PRES   REMARKS
ORMOND BEACH   CLEAR     72  70  94 CALM      29.95
DAYTONA BEACH  CLOUDY    72  71  97 CALM      29.96R
DELAND           N/A    N/A N/A N/A CALM      29.97R
NEW SMYRNA BEA CLEAR     73  72  94 CALM      29.97
JFK SPACE CTR  MOCLDY    72  71  96 NW2       29.95R
TITUSVILLE     PTCLDY    70  70 100 VRB5      29.96
CAPE CANAVERAL PTCLDY    75  75 100 NW6       29.94R
PATRICK AFB    PTCLDY    76  73  90 VRB1      29.94R
MELBOURNE      MOCLDY    72  70  93 SW5       29.95R FOG
VERO BEACH     MOCLDY    70  68  93 CALM      29.95R FOG
FT PIERCE      CLOUDY    69  68  96 NW5       29.95R
STUART         MOCLDY    72  70  94 SE6       29.96R

STATION/POSITION SKY/WX   TEMP    WIND        PRES    WAVE   SWELL
                          AIR SEA DIR/SP/G            HT/PER HT/PER
                          (F)     (DEG/KT/KT) (MB)    (FT/S) (FT/S)
28.5N   80.2W              78 79  180/  8/ 10 1013.8R
28.9N   78.5W              76 78  180/  6/  8 1014.4R
TRIDENT PIER               75 79  300/  2/  2 1013.9R
28.4N   80.5W                 78                N/A     2/ 9
27.5N   80.2W                 78                N/A     3/11   2/11

$$
FLZ050-056-061-142-242-148-248-149-249-151-251-155-255-
160-260-191200-
WEST CENTRAL FLORIDA

CITY           SKY/WX    TMP DP  RH WIND       PRES   REMARKS
CRYSTAL RIVER  FAIR      72  70  94 SE5       29.93F FOG
INVERNESS      CLOUDY   N/A N/A N/A CALM      29.95F HAZE
BROOKSVILLE    MOCLDY    70  69  97 E3        29.95F FOG
CLEARWATER     PTCLDY    72  72 100 SE3       29.94F FOG
TAMPA INTL     MOCLDY    75  71  87 E3        29.95S
TAMPA EXEC       N/A     72  68  88 CALM      29.96S FOG
PLANT CITY       N/A     72  72 100 E3        29.98R FOG
MACDILL AFB    PTCLDY    72  72 100 E5        29.95S FOG
PETER O KNIGHT PTCLDY    75  73  94 E5        29.95S FOG
ST PETERSBURG  PTCLDY    77  74  90 SE7       29.93S
SARASOTA       PTCLDY    70  70 100 E5        29.94R
VENICE         FAIR      72  72 100 SE5       29.97R

STATION/POSITION SKY/WX   TEMP    WIND        PRES    WAVE   SWELL
                          AIR SEA DIR/SP/G            HT/PER HT/PER
                          (F)     (DEG/KT/KT) (MB)    (FT/S) (FT/S)
CEDAR KEY                  77     150/ 13/ 14 1012.5F
28.5N   84.5W              77 77  150/ 12/ 14 1011.9R   1/ 5
27.3N   84.2W                 78                N/A     1/ 6
CLEARWATER BEACH           77 82   60/  4/  4 1013.9R
MIDDLE TAMPA BAY           75     130/  4/  5 1014.2R
VENICE                     73 82  100/  4/  5 1014.2R

$$
FLZ066-069-070-075>078-162-262-165-265-191200-
SOUTHWEST FLORIDA AND KEYS

CITY           SKY/WX    TMP DP  RH WIND       PRES   REMARKS
PUNTA GORDA    PTCLDY    66  66 100 E3        29.98R
FT MYERS       CLEAR     71  70  96 CALM      29.96R
SOUTHWEST INTL CLEAR     71  69  93 SE3       29.96R
NAPLES         PTCLDY    72  70  93 E3        29.96R
MARCO ISLAND   CLOUDY    72  66  83 E3        29.96R
IMMOKALEE      SUNNY    N/A N/A N/A CALM      29.97R VSB 1
MARATHON       MOCLDY    79  74  84 VRB7      29.95R
KEY WEST NAS   MOCLDY    78  72  81 SE12      29.95R
KEY WEST INTL  MOCLDY    79  73  82 SE13      29.95R

STATION/POSITION SKY/WX   TEMP    WIND        PRES    WAVE   SWELL
                          AIR SEA DIR/SP/G            HT/PER HT/PER
                          (F)     (DEG/KT/KT) (MB)    (FT/S) (FT/S)
VENICE                     73 82  100/  4/  5 1014.2R
NAPLES                     74 83  100/  3/  4 1013.7R
26.0N   85.6W              80 80  160/  8/ 10 1012.0S   2/ 5   2/ 5
DRY TORTUGAS               79     130/ 10/ 13 1013.0R
NW FL BAY                  81     140/ 12/ 14 1013.8
SAND KEY                   79     130/ 14/ 15 1013.8R
SOMBRERO KEY               79     130/ 12/ 13 1015.0R
LONG KEY                   79 83  130/ 11/ 12 1015.2R
MOLASSES REEF              79 80  150/  9/ 12 1014.3S

$$
FLZ067-068-071>074-168-172>174-191200-
SOUTHEAST FLORIDA

CITY           SKY/WX    TMP DP  RH WIND       PRES   REMARKS
W PALM BEACH   MOCLDY    76  72  87 SW8       29.97R
FT LAUDER-EXEC CLEAR     74  72  93 W3        29.96R
FT LAUDERDALE  PTCLDY    77  72  84 W3        29.96R
POMPANO BEACH  PTCLDY    76  71  85 W6        29.96R
PEMBROKE PINES CLEAR     76  70  82 SW3       29.97R
OPA LOCKA      CLEAR     76  70  82 W3        29.97R
MIAMI          MOCLDY    77  70  79 CALM      29.96R
WEST KENDALL   CLEAR     74  70  87 CALM      29.96R
HOMESTEAD      CLEAR     73  70  92 S3        29.95S

STATION/POSITION SKY/WX   TEMP    WIND        PRES    WAVE   SWELL
                          AIR SEA DIR/SP/G            HT/PER HT/PER
                          (F)     (DEG/KT/KT) (MB)    (FT/S) (FT/S)
PORT EVERGLADES            78     180/  3/  4 1013.9R
VIRGINIA KEY               79 83  180/  5/  7 1013.8R
LAKE WORTH                 78 80  200/  6/  8 1013.4R


USA.gov is the U.S. government's official web portal to all federal, state and local government web resources and services.